User: anonymous   Login
Location: Unspecified
(41.1637°N, 24.2901°E)
Time: 02:45:02
(UTC+02:00)
Language:

ISS - Orbit

View from above orbital plane
View from above orbital plane
View from above satellite
View from above satellite

Ground track
Ground track

The orbit data is extracted from the following two-line orbital elements,

1 25544U 98067A   21138.87303866  .00001487  00000-0  35130-4 0  9992
2 25544  51.6433 127.7139 0003189  17.3311  59.4614 15.49020452284051
Epoch (UTC): 18 May 2021 20:57:10
Eccentricity: 0.0003189
inclination: 51.6433°
perigee height: 417 km
apogee height: 422 km
right ascension of ascending node: 127.7139°
argument of perigee: 17.3311°
revolutions per day: 15.49020452
mean anomaly at epoch: 59.4614°
orbit number at epoch: 28405

The dashed part of the orbit path shows where the satellite is in the earth's shadow,  

DLR